When you browse on this site, cookies collect data to enhance your experience and personalize the content and advertising you see.
Visit our Privacy Policy to learn more. By continuing to use the site, you agree to this use of cookies and data.
  • In Austria
  • List of Countries
  • For 7 days
  • Water Temperature
  • Weather Map
  • News
  • Weather Widgets
  • user-avatar
    Login

    Hourly Weather Kakanj

    Today, 18 October, Friday

    Time Temperature Precipitation Wind Pressure Humidity
    00:00 +14°C° 0 mm 1 mps 724 mmHg 88%
    01:00 +14°C° 0 mm 1 mps 724 mmHg 90%
    02:00 +13°C° 0 mm 1 mps 724 mmHg 91%
    03:00 +13°C° 0 mm 1 mps 724 mmHg 91%
    04:00 +13°C° 0 mm 1 mps 724 mmHg 92%
    05:00 +13°C° 0 mm 1 mps 724 mmHg 91%
    06:00 +14°C° 0 mm 1 mps 724 mmHg 90%
    07:00 +14°C° 0 mm 1 mps 724 mmHg 89%
    08:00 +16°C° 0 mm 1 mps 724 mmHg 79%
    09:00 +20°C° 0 mm 1 mps 725 mmHg 70%
    10:00 +22°C° 0 mm 1 mps 725 mmHg 61%
    11:00 +23°C° 0 mm 1 mps 724 mmHg 56%
    12:00 +23°C° 0 mm 1 mps 724 mmHg 52%
    13:00 +24°C° 0 mm 1 mps 724 mmHg 47%
    14:00 +23°C° 0 mm 1 mps 724 mmHg 52%
    15:00 +22°C° 0 mm 1 mps 724 mmHg 56%
    16:00 +22°C° 0 mm 1 mps 724 mmHg 60%
    17:00 +20°C° 0 mm 1 mps 723 mmHg 66%
    18:00 +18°C° 0 mm 1 mps 723 mmHg 72%
    19:00 +15°C° 0 mm 1 mps 723 mmHg 78%
    20:00 +15°C° 0 mm 1 mps 723 mmHg 81%
    21:00 +14°C° 0 mm 1 mps 724 mmHg 83%
    22:00 +14°C° 0 mm 1 mps 724 mmHg 85%
    23:00 +13°C° 0 mm 1 mps 724 mmHg 86%

    Tomorrow, 19 October, Saturday

    Time Temperature Precipitation Wind Pressure Humidity
    00:00 +13°C° 0 mm 1 mps 724 mmHg 87%
    01:00 +13°C° 0 mm 1 mps 724 mmHg 87%
    02:00 +13°C° 0 mm 1 mps 724 mmHg 87%
    03:00 +12°C° 0 mm 1 mps 723 mmHg 87%
    04:00 +12°C° 0 mm 1 mps 723 mmHg 87%
    05:00 +12°C° 0 mm 1 mps 723 mmHg 85%
    06:00 +13°C° 0 mm 1 mps 724 mmHg 82%
    07:00 +13°C° 0 mm 1 mps 724 mmHg 80%
    08:00 +15°C° 0 mm 1 mps 724 mmHg 69%
    09:00 +19°C° 0 mm 1 mps 724 mmHg 58%
    10:00 +22°C° 0 mm 1 mps 724 mmHg 46%
    11:00 +23°C° 0 mm 1 mps 724 mmHg 43%
    12:00 +24°C° 0 mm 2 mps 724 mmHg 40%
    13:00 +25°C° 0 mm 2 mps 724 mmHg 37%
    14:00 +23°C° 0 mm 1 mps 724 mmHg 43%
    15:00 +22°C° 0 mm 1 mps 723 mmHg 49%
    16:00 +21°C° 0 mm 1 mps 723 mmHg 55%
    17:00 +19°C° 0 mm 1 mps 723 mmHg 62%
    18:00 +18°C° 0 mm 1 mps 723 mmHg 68%
    19:00 +15°C° 0 mm 1 mps 724 mmHg 74%
    20:00 +14°C° 0 mm 1 mps 724 mmHg 77%
    21:00 +14°C° 0 mm 1 mps 724 mmHg 79%
    22:00 +13°C° 0 mm 2 mps 724 mmHg 82%
    23:00 +13°C° 0 mm 2 mps 724 mmHg 83%

    Day after tomorrow, 20 October, Sunday

    Time Temperature Precipitation Wind Pressure Humidity
    00:00 +13°C° 0 mm 2 mps 724 mmHg 84%
    01:00 +13°C° 0 mm 2 mps 724 mmHg 85%
    02:00 +13°C° 0 mm 1 mps 724 mmHg 85%
    03:00 +12°C° 0 mm 1 mps 724 mmHg 85%
    04:00 +12°C° 0 mm 1 mps 724 mmHg 85%
    05:00 +13°C° 0 mm 1 mps 724 mmHg 83%
    06:00 +13°C° 0 mm 1 mps 724 mmHg 81%
    07:00 +13°C° 0 mm 1 mps 724 mmHg 78%
    08:00 +16°C° 0 mm 1 mps 725 mmHg 69%
    09:00 +19°C° 0 mm 1 mps 725 mmHg 59%
    10:00 +22°C° 0 mm 1 mps 726 mmHg 49%
    11:00 +23°C° 0 mm 1 mps 726 mmHg 46%
    12:00 +24°C° 0 mm 2 mps 725 mmHg 42%
    13:00 +25°C° 0 mm 2 mps 725 mmHg 38%
    14:00 +24°C° 0 mm 1 mps 725 mmHg 44%
    15:00 +23°C° 0 mm 1 mps 725 mmHg 49%
    16:00 +22°C° 0 mm 1 mps 725 mmHg 54%
    17:00 +20°C° 0 mm 1 mps 725 mmHg 59%
    18:00 +18°C° 0 mm 1 mps 725 mmHg 64%
    19:00 +15°C° 0 mm 2 mps 725 mmHg 70%
    20:00 +15°C° 0 mm 2 mps 725 mmHg 71%
    21:00 +15°C° 0 mm 2 mps 725 mmHg 72%
    22:00 +14°C° 0 mm 2 mps 726 mmHg 73%
    23:00 +14°C° 0 mm 2 mps 726 mmHg 71%

    21 October, Monday

    Time Temperature Precipitation Wind Pressure Humidity
    00:00 +14°C° 0 mm 2 mps 725 mmHg 70%
    01:00 +14°C° 0 mm 2 mps 725 mmHg 69%
    02:00 +13°C° 0 mm 2 mps 725 mmHg 67%
    03:00 +13°C° 0 mm 2 mps 725 mmHg 65%
    04:00 +13°C° 0 mm 2 mps 726 mmHg 63%
    05:00 +14°C° 0 mm 1 mps 726 mmHg 61%
    06:00 +14°C° 0 mm 1 mps 726 mmHg 60%
    07:00 +14°C° 0 mm 1 mps 726 mmHg 58%
    08:00 +18°C° 0 mm 1 mps 726 mmHg 52%
    09:00 +21°C° 0 mm 1 mps 727 mmHg 46%
    10:00 +24°C° 0 mm 1 mps 727 mmHg 39%
    11:00 +26°C° 0 mm 1 mps 727 mmHg 38%
    12:00 +27°C° 0 mm 1 mps 727 mmHg 36%
    13:00 +26°C° 0 mm 0 mps 727 mmHg 34%
    14:00 +25°C° 0 mm 0 mps 727 mmHg 40%
    15:00 +23°C° 0 mm 0 mps 726 mmHg 46%
    16:00 +22°C° 0 mm 0 mps 726 mmHg 51%
    17:00 +20°C° 0 mm 0 mps 726 mmHg 54%
    18:00 +19°C° 0 mm 0 mps 726 mmHg 56%
    19:00 +17°C° 0 mm 0 mps 727 mmHg 59%
    20:00 +17°C° 0 mm 0 mps 727 mmHg 60%
    21:00 +16°C° 0 mm 0 mps 727 mmHg 61%
    22:00 +16°C° 0 mm 0 mps 727 mmHg 62%
    23:00 +15°C° 0 mm 0 mps 727 mmHg 63%

    22 October, Tuesday

    Time Temperature Precipitation Wind Pressure Humidity
    00:00 +15°C° 0 mm 0 mps 727 mmHg 64%
    01:00 +15°C° 0 mm 0 mps 727 mmHg 65%
    02:00 +14°C° 0 mm 0 mps 727 mmHg 67%
    03:00 +14°C° 0 mm 0 mps 727 mmHg 68%
    04:00 +14°C° 0 mm 0 mps 727 mmHg 69%
    05:00 +14°C° 0 mm 0 mps 727 mmHg 69%
    06:00 +14°C° 0 mm 0 mps 727 mmHg 69%
    07:00 +14°C° 0 mm 0 mps 727 mmHg 69%
    08:00 +17°C° 0 mm 0 mps 728 mmHg 61%
    09:00 +21°C° 0 mm 1 mps 728 mmHg 54%
    10:00 +24°C° 0 mm 1 mps 728 mmHg 46%
    11:00 +25°C° 0 mm 1 mps 728 mmHg 45%
    12:00 +25°C° 0 mm 1 mps 728 mmHg 43%
    13:00 +26°C° 0 mm 1 mps 728 mmHg 41%
    14:00 +25°C° 0 mm 1 mps 728 mmHg 47%
    15:00 +24°C° 0 mm 1 mps 727 mmHg 53%
    16:00 +23°C° 0 mm 1 mps 727 mmHg 59%
    17:00 +21°C° 0 mm 1 mps 727 mmHg 65%
    18:00 +19°C° 0 mm 1 mps 727 mmHg 72%
    19:00 +15°C° 0 mm 0 mps 727 mmHg 78%
    20:00 +15°C° 0 mm 0 mps 727 mmHg 80%
    21:00 +15°C° 0 mm 0 mps 727 mmHg 82%
    22:00 +14°C° 0 mm 0 mps 727 mmHg 84%
    23:00 +14°C° 0 mm 0 mps 727 mmHg 84%

    23 October, Wednesday

    Time Temperature Precipitation Wind Pressure Humidity
    00:00 +14°C° 0 mm 0 mps 727 mmHg 85%
    01:00 +14°C° 0 mm 0 mps 727 mmHg 85%
    02:00 +13°C° 0 mm 0 mps 727 mmHg 85%
    03:00 +13°C° 0 mm 0 mps 726 mmHg 85%
    04:00 +14°C° 0 mm 1 mps 726 mmHg 85%
    05:00 +13°C° 0 mm 0 mps 726 mmHg 84%
    06:00 +13°C° 0 mm 0 mps 726 mmHg 82%
    07:00 +13°C° 0 mm 0 mps 726 mmHg 81%
    08:00 +16°C° 0 mm 0 mps 726 mmHg 71%
    09:00 +18°C° 0 mm 0 mps 726 mmHg 61%
    10:00 +21°C° 0 mm 0 mps 726 mmHg 52%
    11:00 +22°C° 0 mm 0 mps 726 mmHg 48%
    12:00 +24°C° 0 mm 0 mps 726 mmHg 44%
    13:00 +25°C° 0 mm 0 mps 726 mmHg 40%
    14:00 +23°C° 0 mm 0 mps 726 mmHg 45%
    15:00 +22°C° 0 mm 0 mps 725 mmHg 51%
    16:00 +21°C° 0 mm 0 mps 725 mmHg 56%
    17:00 +19°C° 0 mm 0 mps 725 mmHg 60%
    18:00 +17°C° 0 mm 0 mps 725 mmHg 65%
    19:00 +16°C° 0 mm 0 mps 725 mmHg 69%
    20:00 +16°C° 0 mm 1 mps 725 mmHg 69%
    21:00 +16°C° 0 mm 1 mps 725 mmHg 69%
    22:00 +16°C° 0 mm 1 mps 725 mmHg 69%
    23:00 +15°C° 0 mm 1 mps 725 mmHg 69%
    Show more